Home   Weather   Dinuba   Past weeks
Flag for USA

Past Weather in Dinuba, California, USA — Yesterday and Last 2 Weeks

Now
70 °F

Sunny.


Feels Like: 77 °F
Forecast: 71 / 44 °F
Wind: 15 mph from Northwest

Location: Visalia Municipal

Current Time: Oct 17, 2019 at 6:39:42 pm

Latest Report: Oct 17, 2019 at 5:56 pm


Visibility: 10 mi

Pressure: 29.88 "Hg

Humidity: 39%

Dew Point: 44 °F

Location of DinubaLocation

Past Weather in Dinuba — Graph

°F

Dinuba Temperature Yesterday

Maximum temperature yesterday: 82 °F (at 3:56 pm)
Minimum temperature yesterday: 51 °F (at 2:56 am)
Average temperature yesterday: 64 °F

High & Low Weather Summary for the Past Weeks

 TemperatureHumidityPressure
High90 °F (Oct 8, 3:56 pm)86% (Oct 3, 6:56 am)30.18 "Hg (Oct 3, 6:56 am)
Low43 °F (Oct 10, 6:56 am)14% (Oct 12, 3:56 pm)29.79 "Hg (Oct 13, 4:56 pm)
Average63 °F49%29.97 "Hg
* Reported Oct 2 4:56 pm — Oct 17 4:56 pm, Dinuba. Weather by CustomWeather, © 2019

Note: Actual official high and low records may vary slightly from our data, if they occured in-between our weather recording intervals... More about our weather records

Advertising

Dinuba Weather History for the Previous 24 Hours

Scroll right to see more
 ConditionsComfort  
Time TempWeatherWind HumidityBarometerVisibility
4:56 pm
Thu, Oct 17
73 °FSunny.17 mph33%29.88 "Hg10 mi
3:56 pm74 °FScattered clouds.18 mph31%29.88 "Hg8 mi
2:56 pm75 °FPassing clouds.20 mph33%29.88 "Hg8 mi
1:56 pm74 °FSunny.14 mph40%29.89 "Hg9 mi
12:56 pm72 °FPartly sunny.12 mph49%29.91 "Hg9 mi
11:56 am70 °FPassing clouds.7 mph57%29.93 "Hg10 mi
10:56 am67 °FScattered clouds.6 mph63%29.95 "Hg10 mi
9:56 am63 °FSunny.6 mph70%29.95 "Hg10 mi
8:56 am58 °FSunny.3 mph81%29.93 "Hg10 mi
6:56 am54 °FClear.6 mph83%29.89 "Hg10 mi
5:56 am53 °FClear.5 mph80%29.88 "Hg10 mi
4:56 am55 °FClear.3 mph74%29.87 "Hg10 mi
3:56 am56 °FClear.6 mph72%29.86 "Hg10 mi
2:56 am57 °FClear.8 mph72%29.87 "Hg10 mi
1:56 am58 °FClear.7 mph70%29.86 "Hg9 mi
12:56 am57 °FClear.7 mph69%29.86 "Hg8 mi
11:56 pm
Wed, Oct 16
57 °FClear.5 mph72%29.87 "Hg8 mi
10:56 pm58 °FClear.6 mph67%29.88 "Hg10 mi
9:56 pm65 °FClear.5 mph54%29.87 "Hg10 mi
8:56 pm65 °FClear.6 mph54%29.86 "Hg10 mi
7:56 pm67 °FClear.8 mph51%29.85 "Hg10 mi
6:56 pm71 °FClear.6 mph45%29.85 "Hg10 mi
Weather by CustomWeather, © 2019

See weather overview